Time,TemperatureF,DewpointF,PressureIn,WindDirection,WindDirectionDegrees,WindSpeedMPH,WindSpeedGustMPH,Humidity,HourlyPrecipIn,Conditions,Clouds,dailyrainin,SoftwareType,DateUTC
2013-06-01 00:01:00,70.0,66.0,29.95,South,187,1.7,2.0,87,0.00,,,0.00,WUHU216DAVISVP2,2013-06-01 04:01:00,
2013-06-01 00:06:00,70.1,65.7,29.95,SW,217,1.0,2.0,86,0.00,,,0.00,WUHU216DAVISVP2,2013-06-01 04:06:00,
2013-06-01 00:11:00,70.1,65.7,29.95,SW,217,1.0,2.0,86,0.00,,,0.00,WUHU216DAVISVP2,2013-06-01 04:11:00,
2013-06-01 00:16:00,70.2,65.8,29.95,SE,132,1.5,3.0,86,0.00,,,0.00,WUHU216DAVISVP2,2013-06-01 04:16:00,
2013-06-01 00:21:00,70.7,66.0,29.95,ESE,108,2.0,3.0,85,0.00,,,0.00,WUHU216DAVISVP2,2013-06-01 04:21:00,
2013-06-01 00:26:00,71.1,66.4,29.95,ESE,118,1.5,3.0,85,0.00,,,0.00,WUHU216DAVISVP2,2013-06-01 04:26:00,
2013-06-01 00:31:00,71.2,66.2,29.95,SE,140,1.0,3.0,84,0.00,,,0.00,WUHU216DAVISVP2,2013-06-01 04:31:00,
2013-06-01 00:36:00,70.9,65.9,29.95,ESE,114,0.0,3.0,84,0.00,,,0.00,WUHU216DAVISVP2,2013-06-01 04:36:00,
2013-06-01 00:41:00,70.6,65.9,29.95,ESE,110,1.1,3.0,85,0.00,,,0.00,WUHU216DAVISVP2,2013-06-01 04:41:00,
2013-06-01 00:46:00,70.3,65.9,29.95,SE,134,1.1,2.0,86,0.00,,,0.00,WUHU216DAVISVP2,2013-06-01 04:46:00,
2013-06-01 00:51:00,70.2,65.8,29.94,SE,143,0.0,2.0,86,0.00,,,0.00,WUHU216DAVISVP2,2013-06-01 04:51:00,
2013-06-01 00:56:00,70.1,65.7,29.94,SE,124,0.0,2.0,86,0.00,,,0.00,WUHU216DAVISVP2,2013-06-01 04:56:00,
2013-06-01 01:01:00,70.3,65.9,29.94,ESE,118,1.2,3.0,86,0.00,,,0.00,WUHU216DAVISVP2,2013-06-01 05:01:00,
2013-06-01 01:06:00,70.5,66.1,29.94,SE,138,1.0,3.0,86,0.00,,,0.00,WUHU216DAVISVP2,2013-06-01 05:06:00,
2013-06-01 01:11:00,70.5,65.8,29.94,ESE,123,1.2,3.0,85,0.00,,,0.00,WUHU216DAVISVP2,2013-06-01 05:11:00,
2013-06-01 01:16:00,70.6,66.2,29.94,ESE,122,1.5,3.0,86,0.00,,,0.00,WUHU216DAVISVP2,2013-06-01 05:16:00,
2013-06-01 01:21:00,70.4,66.0,29.94,SE,138,1.2,3.0,86,0.00,,,0.00,WUHU216DAVISVP2,2013-06-01 05:21:00,
2013-06-01 01:26:00,70.1,65.7,29.94,SE,134,2.0,3.0,86,0.00,,,0.00,WUHU216DAVISVP2,2013-06-01 05:26:00,
2013-06-01 01:31:00,70.0,65.6,29.94,South,191,1.0,3.0,86,0.00,,,0.00,WUHU216DAVISVP2,2013-06-01 05:31:00,
2013-06-01 01:36:00,69.9,65.5,29.94,SSE,150,1.0,3.0,86,0.00,,,0.00,WUHU216DAVISVP2,2013-06-01 05:36:00,
2013-06-01 01:41:00,69.7,65.7,29.94,South,189,1.1,4.0,87,0.00,,,0.00,WUHU216DAVISVP2,2013-06-01 05:41:00,
2013-06-01 01:46:00,69.4,65.4,29.94,SSE,162,1.3,4.0,87,0.00,,,0.00,WUHU216DAVISVP2,2013-06-01 05:46:00,
2013-06-01 01:51:00,69.2,65.2,29.94,SSW,204,1.0,4.0,87,0.00,,,0.00,WUHU216DAVISVP2,2013-06-01 05:51:00,
2013-06-01 01:56:00,69.0,65.3,29.94,SE,143,1.1,4.0,88,0.00,,,0.00,WUHU216DAVISVP2,2013-06-01 05:56:00,
2013-06-01 02:01:00,68.8,65.1,29.94,ESE,105,2.0,3.0,88,0.00,,,0.00,WUHU216DAVISVP2,2013-06-01 06:01:00,
2013-06-01 02:06:00,69.0,65.3,29.94,SE,142,1.1,3.0,88,0.00,,,0.00,WUHU216DAVISVP2,2013-06-01 06:06:00,
2013-06-01 02:11:00,69.1,65.4,29.93,SSE,165,2.0,3.0,88,0.00,,,0.00,WUHU216DAVISVP2,2013-06-01 06:11:00,
2013-06-01 02:16:00,69.2,65.5,29.94,ESE,113,2.0,3.0,88,0.00,,,0.00,WUHU216DAVISVP2,2013-06-01 06:16:00,
2013-06-01 02:21:00,69.0,65.3,29.93,South,189,1.3,3.0,88,0.00,,,0.00,WUHU216DAVISVP2,2013-06-01 06:21:00,
2013-06-01 02:26:00,69.2,65.5,29.93,SE,124,1.3,4.0,88,0.00,,,0.00,WUHU216DAVISVP2,2013-06-01 06:26:00,
2013-06-01 02:31:00,69.2,65.5,29.93,SSE,148,1.2,4.0,88,0.00,,,0.00,WUHU216DAVISVP2,2013-06-01 06:31:00,
2013-06-01 02:36:00,69.1,65.4,29.93,South,170,1.5,4.0,88,0.00,,,0.00,WUHU216DAVISVP2,2013-06-01 06:36:00,
2013-06-01 02:41:00,69.1,65.4,29.93,SSW,194,2.0,4.0,88,0.00,,,0.00,WUHU216DAVISVP2,2013-06-01 06:41:00,
2013-06-01 02:46:00,69.2,65.5,29.93,SSE,164,1.5,4.0,88,0.00,,,0.00,WUHU216DAVISVP2,2013-06-01 06:46:00,
2013-06-01 02:51:00,69.2,65.2,29.93,SE,138,1.9,5.0,87,0.00,,,0.00,WUHU216DAVISVP2,2013-06-01 06:51:00,
2013-06-01 02:56:00,69.4,65.4,29.93,SW,216,2.0,5.0,87,0.00,,,0.00,WUHU216DAVISVP2,2013-06-01 06:56:00,
2013-06-01 03:01:00,69.3,65.3,29.93,SE,141,2.0,5.0,87,0.00,,,0.00,WUHU216DAVISVP2,2013-06-01 07:01:00,
2013-06-01 03:06:00,69.3,65.3,29.93,SE,128,3.0,5.0,87,0.00,,,0.00,WUHU216DAVISVP2,2013-06-01 07:06:00,
2013-06-01 03:11:00,69.4,65.4,29.93,SE,124,2.0,6.0,87,0.00,,,0.00,WUHU216DAVISVP2,2013-06-01 07:11:00,
2013-06-01 03:16:00,69.3,65.3,29.93,SE,134,2.0,6.0,87,0.00,,,0.00,WUHU216DAVISVP2,2013-06-01 07:16:00,
2013-06-01 03:21:00,69.3,65.3,29.93,SE,130,1.7,6.0,87,0.00,,,0.00,WUHU216DAVISVP2,2013-06-01 07:21:00,
2013-06-01 03:26:00,69.1,65.1,29.93,SE,146,1.3,5.0,87,0.00,,,0.00,WUHU216DAVISVP2,2013-06-01 07:26:00,
2013-06-01 03:31:00,68.9,64.9,29.93,SE,136,3.0,4.0,87,0.00,,,0.00,WUHU216DAVISVP2,2013-06-01 07:31:00,
2013-06-01 03:36:00,68.8,64.8,29.93,SSE,152,1.6,4.0,87,0.00,,,0.00,WUHU216DAVISVP2,2013-06-01 07:36:00,
2013-06-01 03:41:00,68.8,64.8,29.93,South,181,1.7,5.0,87,0.00,,,0.00,WUHU216DAVISVP2,2013-06-01 07:41:00,
2013-06-01 03:46:00,68.7,64.7,29.93,South,173,2.3,6.0,87,0.00,,,0.00,WUHU216DAVISVP2,2013-06-01 07:46:00,
2013-06-01 03:51:00,68.7,64.7,29.93,SSW,205,2.0,6.0,87,0.00,,,0.00,WUHU216DAVISVP2,2013-06-01 07:51:00,
2013-06-01 03:56:00,68.5,64.5,29.93,SSW,192,1.8,6.0,87,0.00,,,0.00,WUHU216DAVISVP2,2013-06-01 07:56:00,
2013-06-01 04:01:00,68.6,64.6,29.93,SSE,166,3.0,6.0,87,0.00,,,0.00,WUHU216DAVISVP2,2013-06-01 08:01:00,
2013-06-01 04:06:00,68.8,64.5,29.93,SE,125,4.0,5.0,86,0.00,,,0.00,WUHU216DAVISVP2,2013-06-01 08:06:00,
2013-06-01 04:11:00,68.9,64.6,29.94,SW,223,1.4,5.0,86,0.00,,,0.00,WUHU216DAVISVP2,2013-06-01 08:11:00,
2013-06-01 04:16:00,68.9,64.6,29.94,ESE,105,1.8,5.0,86,0.00,,,0.00,WUHU216DAVISVP2,2013-06-01 08:16:00,
2013-06-01 04:21:00,68.9,64.2,29.94,SE,124,1.4,5.0,85,0.00,,,0.00,WUHU216DAVISVP2,2013-06-01 08:21:00,
2013-06-01 04:26:00,68.8,64.5,29.94,ESE,122,1.0,3.0,86,0.00,,,0.00,WUHU216DAVISVP2,2013-06-01 08:26:00,
2013-06-01 04:31:00,68.6,64.3,29.94,SE,139,2.0,3.0,86,0.00,,,0.00,WUHU216DAVISVP2,2013-06-01 08:31:00,
2013-06-01 04:36:00,68.3,64.0,29.94,SE,136,2.0,3.0,86,0.00,,,0.00,WUHU216DAVISVP2,2013-06-01 08:36:00,
2013-06-01 04:41:00,68.1,63.8,29.94,SSW,195,1.3,2.0,86,0.00,,,0.00,WUHU216DAVISVP2,2013-06-01 08:41:00,
2013-06-01 04:46:00,67.9,63.9,29.94,South,181,1.4,3.0,87,0.00,,,0.00,WUHU216DAVISVP2,2013-06-01 08:46:00,
2013-06-01 04:51:00,67.7,63.7,29.94,SSE,156,2.0,3.0,87,0.00,,,0.00,WUHU216DAVISVP2,2013-06-01 08:51:00,
2013-06-01 04:56:00,67.7,63.7,29.94,South,177,1.1,3.0,87,0.00,,,0.00,WUHU216DAVISVP2,2013-06-01 08:56:00,
2013-06-01 05:01:00,67.6,63.6,29.94,SSW,197,1.5,4.0,87,0.00,,,0.00,WUHU216DAVISVP2,2013-06-01 09:01:00,
2013-06-01 05:06:00,67.5,63.5,29.94,SSW,192,2.0,4.0,87,0.00,,,0.00,WUHU216DAVISVP2,2013-06-01 09:06:00,
2013-06-01 05:11:00,67.5,63.2,29.94,South,185,1.1,4.0,86,0.00,,,0.00,WUHU216DAVISVP2,2013-06-01 09:11:00,
2013-06-01 05:16:00,67.5,63.2,29.94,SE,132,1.4,4.0,86,0.00,,,0.00,WUHU216DAVISVP2,2013-06-01 09:16:00,
2013-06-01 05:21:00,67.5,63.2,29.94,SE,141,1.0,3.0,86,0.00,,,0.00,WUHU216DAVISVP2,2013-06-01 09:21:00,
2013-06-01 05:26:00,67.7,63.4,29.94,South,173,1.3,6.0,86,0.00,,,0.00,WUHU216DAVISVP2,2013-06-01 09:26:00,
2013-06-01 05:31:00,67.7,63.4,29.94,SSW,201,2.5,6.0,86,0.00,,,0.00,WUHU216DAVISVP2,2013-06-01 09:31:00,
2013-06-01 05:36:00,67.7,63.4,29.94,South,190,1.6,6.0,86,0.00,,,0.00,WUHU216DAVISVP2,2013-06-01 09:36:00,
2013-06-01 05:41:00,67.7,63.0,29.94,South,185,2.0,6.0,85,0.00,,,0.00,WUHU216DAVISVP2,2013-06-01 09:41:00,
2013-06-01 05:46:00,67.8,63.1,29.94,SSW,193,2.2,6.0,85,0.00,,,0.00,WUHU216DAVISVP2,2013-06-01 09:46:00,
2013-06-01 05:51:00,67.9,63.2,29.95,South,173,1.1,6.0,85,0.00,,,0.00,WUHU216DAVISVP2,2013-06-01 09:51:00,
2013-06-01 05:56:00,67.8,63.1,29.95,South,176,1.6,6.0,85,0.00,,,0.00,WUHU216DAVISVP2,2013-06-01 09:56:00,
2013-06-01 06:01:00,68.3,63.6,29.95,South,179,1.4,6.0,85,0.00,,,0.00,WUHU216DAVISVP2,2013-06-01 10:01:00,
2013-06-01 06:06:00,68.7,63.7,29.95,SE,131,2.0,4.0,84,0.00,,,0.00,WUHU216DAVISVP2,2013-06-01 10:06:00,
2013-06-01 06:11:00,69.1,63.7,29.95,SSW,193,1.4,4.0,83,0.00,,,0.00,WUHU216DAVISVP2,2013-06-01 10:11:00,
2013-06-01 06:16:00,69.2,63.8,29.95,SSW,197,2.0,4.0,83,0.00,,,0.00,WUHU216DAVISVP2,2013-06-01 10:16:00,
2013-06-01 06:21:00,69.5,64.1,29.95,South,176,2.2,6.0,83,0.00,,,0.00,WUHU216DAVISVP2,2013-06-01 10:21:00,
2013-06-01 06:26:00,69.7,64.0,29.95,South,176,2.3,6.0,82,0.00,,,0.00,WUHU216DAVISVP2,2013-06-01 10:26:00,
2013-06-01 06:31:00,70.0,64.2,29.95,SSW,207,2.3,6.0,82,0.00,,,0.00,WUHU216DAVISVP2,2013-06-01 10:31:00,
2013-06-01 06:36:00,70.2,64.2,29.96,South,191,2.0,6.0,81,0.00,,,0.00,WUHU216DAVISVP2,2013-06-01 10:36:00,
2013-06-01 06:41:00,70.5,64.5,29.96,SSW,193,4.0,5.0,81,0.00,,,0.00,WUHU216DAVISVP2,2013-06-01 10:41:00,
2013-06-01 06:46:00,70.9,64.9,29.96,SSE,161,1.0,5.0,81,0.00,,,0.00,WUHU216DAVISVP2,2013-06-01 10:46:00,
2013-06-01 06:51:00,71.3,64.9,29.96,SSW,198,1.0,5.0,80,0.00,,,0.00,WUHU216DAVISVP2,2013-06-01 10:51:00,
2013-06-01 06:56:00,72.0,64.9,29.96,SE,143,1.0,4.0,78,0.00,,,0.00,WUHU216DAVISVP2,2013-06-01 10:56:00,
2013-06-01 07:01:00,72.2,65.1,29.96,SE,144,1.2,3.0,78,0.00,,,0.00,WUHU216DAVISVP2,2013-06-01 11:01:00,
2013-06-01 07:06:00,72.3,65.2,29.96,South,178,1.3,4.0,78,0.00,,,0.00,WUHU216DAVISVP2,2013-06-01 11:06:00,
2013-06-01 07:11:00,72.7,65.2,29.95,South,180,2.1,6.0,77,0.00,,,0.00,WUHU216DAVISVP2,2013-06-01 11:11:00,
2013-06-01 07:16:00,72.9,65.3,29.95,SSE,154,2.4,8.0,77,0.00,,,0.00,WUHU216DAVISVP2,2013-06-01 11:16:00,
2013-06-01 07:21:00,73.1,65.2,29.96,SSW,195,3.0,8.0,76,0.00,,,0.00,WUHU216DAVISVP2,2013-06-01 11:21:00,
2013-06-01 07:26:00,73.2,65.2,29.96,SSE,166,4.0,8.0,76,0.00,,,0.00,WUHU216DAVISVP2,2013-06-01 11:26:00,
2013-06-01 07:31:00,73.5,65.6,29.96,South,176,3.2,8.0,76,0.00,,,0.00,WUHU216DAVISVP2,2013-06-01 11:31:00,
2013-06-01 07:36:00,73.7,65.3,29.96,South,177,2.0,8.0,75,0.00,,,0.00,WUHU216DAVISVP2,2013-06-01 11:36:00,
2013-06-01 07:41:00,73.8,65.5,29.96,SSW,198,2.5,8.0,75,0.00,,,0.00,WUHU216DAVISVP2,2013-06-01 11:41:00,
2013-06-01 07:46:00,74.1,65.4,29.96,South,171,3.7,10.0,74,0.00,,,0.00,WUHU216DAVISVP2,2013-06-01 11:46:00,
2013-06-01 07:51:00,74.3,66.0,29.97,South,183,2.4,10.0,75,0.00,,,0.00,WUHU216DAVISVP2,2013-06-01 11:51:00,
2013-06-01 07:56:00,74.6,65.9,29.96,SSE,156,3.0,10.0,74,0.00,,,0.00,WUHU216DAVISVP2,2013-06-01 11:56:00,
2013-06-01 08:01:00,74.8,66.1,29.96,SE,142,3.4,10.0,74,0.00,,,0.00,WUHU216DAVISVP2,2013-06-01 12:01:00,
2013-06-01 08:06:00,74.8,66.0,29.96,West,271,3.0,11.0,74,0.00,,,0.00,WUHU216DAVISVP2,2013-06-01 12:06:00,
2013-06-01 08:11:00,75.0,65.9,29.96,SSE,151,3.7,11.0,73,0.00,,,0.00,WUHU216DAVISVP2,2013-06-01 12:11:00,
2013-06-01 08:16:00,75.3,66.2,29.96,SW,219,5.0,10.0,73,0.00,,,0.00,WUHU216DAVISVP2,2013-06-01 12:16:00,
2013-06-01 08:21:00,75.4,66.1,29.96,SSW,193,5.0,9.0,73,0.00,,,0.00,WUHU216DAVISVP2,2013-06-01 12:21:00,
2013-06-01 08:26:00,75.6,66.3,29.96,SE,139,3.2,9.0,73,0.00,,,0.00,WUHU216DAVISVP2,2013-06-01 12:26:00,
2013-06-01 08:31:00,76.1,66.8,29.96,ESE,111,4.0,8.0,73,0.00,,,0.00,WUHU216DAVISVP2,2013-06-01 12:31:00,
2013-06-01 08:36:00,76.1,67.0,29.96,WSW,252,7.0,8.0,73,0.00,,,0.00,WUHU216DAVISVP2,2013-06-01 12:36:00,
2013-06-01 08:41:00,76.2,66.7,29.97,SSE,162,5.0,8.0,72,0.00,,,0.00,WUHU216DAVISVP2,2013-06-01 12:41:00,
2013-06-01 08:46:00,76.3,66.8,29.96,SSW,198,7.0,11.0,72,0.00,,,0.00,WUHU216DAVISVP2,2013-06-01 12:46:00,
2013-06-01 08:51:00,76.6,67.1,29.96,East,101,7.0,11.0,72,0.00,,,0.00,WUHU216DAVISVP2,2013-06-01 12:51:00,
2013-06-01 08:56:00,76.8,66.7,29.96,SSE,163,3.5,11.0,71,0.00,,,0.00,WUHU216DAVISVP2,2013-06-01 12:56:00,
2013-06-01 09:01:00,77.1,67.6,29.96,SE,144,2.6,11.0,72,0.00,,,0.00,WUHU216DAVISVP2,2013-06-01 13:01:00,
2013-06-01 09:06:00,77.2,67.3,29.96,SSE,162,2.0,10.0,71,0.00,,,0.00,WUHU216DAVISVP2,2013-06-01 13:06:00,
2013-06-01 09:11:00,77.9,67.5,29.95,South,169,3.2,8.0,70,0.00,,,0.00,WUHU216DAVISVP2,2013-06-01 13:11:00,
2013-06-01 09:16:00,78.2,67.8,29.96,SSE,159,6.0,8.0,70,0.00,,,0.00,WUHU216DAVISVP2,2013-06-01 13:16:00,
2013-06-01 09:21:00,78.0,68.0,29.96,SW,217,6.0,8.0,71,0.00,,,0.00,WUHU216DAVISVP2,2013-06-01 13:21:00,
2013-06-01 09:26:00,78.3,68.3,29.95,SW,226,4.0,8.0,71,0.00,,,0.00,WUHU216DAVISVP2,2013-06-01 13:26:00,
2013-06-01 09:31:00,79.0,68.0,29.96,South,175,3.1,8.0,69,0.00,,,0.00,WUHU216DAVISVP2,2013-06-01 13:31:00,
2013-06-01 09:36:00,78.9,68.1,29.95,South,184,3.6,8.0,69,0.00,,,0.00,WUHU216DAVISVP2,2013-06-01 13:36:00,
2013-06-01 09:41:00,79.0,68.2,29.95,SSW,201,4.0,8.0,69,0.00,,,0.00,WUHU216DAVISVP2,2013-06-01 13:41:00,
2013-06-01 09:46:00,78.8,68.8,29.95,SSE,154,3.3,9.0,71,0.00,,,0.00,WUHU216DAVISVP2,2013-06-01 13:46:00,
2013-06-01 09:51:00,79.6,69.6,29.95,South,176,2.8,9.0,71,0.00,,,0.00,WUHU216DAVISVP2,2013-06-01 13:51:00,
2013-06-01 09:56:00,79.6,69.2,29.95,ESE,107,6.0,9.0,70,0.00,,,0.00,WUHU216DAVISVP2,2013-06-01 13:56:00,
2013-06-01 10:01:00,79.7,69.3,29.94,ENE,71,5.0,9.0,70,0.00,,,0.00,WUHU216DAVISVP2,2013-06-01 14:01:00,
2013-06-01 10:06:00,79.4,68.6,29.94,ESE,119,5.1,9.0,69,0.00,,,0.00,WUHU216DAVISVP2,2013-06-01 14:06:00,
2013-06-01 10:11:00,79.8,68.7,29.94,SSW,208,3.0,8.0,69,0.00,,,0.00,WUHU216DAVISVP2,2013-06-01 14:11:00,
2013-06-01 10:16:00,80.4,69.1,29.94,SSW,207,2.2,8.0,68,0.00,,,0.00,WUHU216DAVISVP2,2013-06-01 14:16:00,
2013-06-01 10:21:00,80.5,69.2,29.94,SE,127,4.1,8.0,68,0.00,,,0.00,WUHU216DAVISVP2,2013-06-01 14:21:00,
2013-06-01 10:26:00,80.4,69.5,29.94,SE,136,3.9,9.0,69,0.00,,,0.00,WUHU216DAVISVP2,2013-06-01 14:26:00,
2013-06-01 10:31:00,80.9,69.3,29.93,South,184,4.0,9.0,68,0.00,,,0.00,WUHU216DAVISVP2,2013-06-01 14:31:00,
2013-06-01 10:36:00,81.5,70.6,29.94,SE,134,3.1,9.0,69,0.00,,,0.00,WUHU216DAVISVP2,2013-06-01 14:36:00,
2013-06-01 10:41:00,81.4,69.6,29.94,SE,135,4.0,9.0,67,0.00,,,0.00,WUHU216DAVISVP2,2013-06-01 14:41:00,
2013-06-01 10:46:00,81.9,70.1,29.93,SE,139,3.8,9.0,67,0.00,,,0.00,WUHU216DAVISVP2,2013-06-01 14:46:00,
2013-06-01 10:51:00,81.9,70.1,29.93,ESE,122,5.0,13.0,67,0.00,,,0.00,WUHU216DAVISVP2,2013-06-01 14:51:00,
2013-06-01 10:56:00,82.1,69.9,29.93,SE,131,4.1,13.0,66,0.00,,,0.00,WUHU216DAVISVP2,2013-06-01 14:56:00,
2013-06-01 11:01:00,82.1,70.1,29.93,SE,134,4.1,11.0,67,0.00,,,0.00,WUHU216DAVISVP2,2013-06-01 15:01:00,
2013-06-01 11:06:00,83.0,70.7,29.93,ESE,117,4.0,11.0,66,0.00,,,0.00,WUHU216DAVISVP2,2013-06-01 15:06:00,
2013-06-01 11:11:00,83.8,70.6,29.93,South,171,3.2,10.0,64,0.00,,,0.00,WUHU216DAVISVP2,2013-06-01 15:11:00,
2013-06-01 11:16:00,84.3,71.5,29.93,SSW,194,3.0,10.0,65,0.00,,,0.00,WUHU216DAVISVP2,2013-06-01 15:16:00,
2013-06-01 11:21:00,84.4,70.2,29.93,SSW,192,4.7,8.0,62,0.00,,,0.00,WUHU216DAVISVP2,2013-06-01 15:21:00,
2013-06-01 11:26:00,84.3,70.1,29.92,SE,137,3.3,9.0,62,0.00,,,0.00,WUHU216DAVISVP2,2013-06-01 15:26:00,
2013-06-01 11:31:00,84.4,70.4,29.92,SSE,161,3.4,9.0,63,0.00,,,0.00,WUHU216DAVISVP2,2013-06-01 15:31:00,
2013-06-01 11:36:00,84.7,70.5,29.92,SSW,205,3.6,10.0,62,0.00,,,0.00,WUHU216DAVISVP2,2013-06-01 15:36:00,
2013-06-01 11:41:00,85.3,72.0,29.92,SW,224,3.0,10.0,64,0.00,,,0.00,WUHU216DAVISVP2,2013-06-01 15:41:00,
2013-06-01 11:46:00,85.9,70.9,29.92,SSW,200,2.3,11.0,61,0.00,,,0.00,WUHU216DAVISVP2,2013-06-01 15:46:00,
2013-06-01 11:51:00,86.7,71.4,29.92,ESE,114,3.0,11.0,60,0.00,,,0.00,WUHU216DAVISVP2,2013-06-01 15:51:00,
2013-06-01 11:56:00,86.4,71.6,29.91,South,184,3.2,10.0,61,0.00,,,0.00,WUHU216DAVISVP2,2013-06-01 15:56:00,
2013-06-01 12:01:00,86.6,70.8,29.91,South,182,3.6,10.0,59,0.00,,,0.00,WUHU216DAVISVP2,2013-06-01 16:01:00,
2013-06-01 12:06:00,86.5,70.7,29.91,SE,136,3.9,8.0,59,0.00,,,0.00,WUHU216DAVISVP2,2013-06-01 16:06:00,
2013-06-01 12:11:00,86.8,70.5,29.91,South,187,4.0,8.0,58,0.00,,,0.00,WUHU216DAVISVP2,2013-06-01 16:11:00,
2013-06-01 12:16:00,87.1,70.8,29.91,South,189,3.5,9.0,58,0.00,,,0.00,WUHU216DAVISVP2,2013-06-01 16:16:00,
2013-06-01 12:21:00,87.0,71.2,29.91,SSE,153,3.0,12.0,59,0.00,,,0.00,WUHU216DAVISVP2,2013-06-01 16:21:00,
2013-06-01 12:26:00,87.4,70.6,29.90,SW,228,4.0,12.0,57,0.00,,,0.00,WUHU216DAVISVP2,2013-06-01 16:26:00,
2013-06-01 12:31:00,87.3,69.9,29.90,South,177,7.0,11.0,56,0.00,,,0.00,WUHU216DAVISVP2,2013-06-01 16:31:00,
2013-06-01 12:36:00,87.9,72.1,29.90,ESE,117,6.0,14.0,59,0.00,,,0.00,WUHU216DAVISVP2,2013-06-01 16:36:00,
2013-06-01 12:41:00,88.2,70.5,29.90,ESE,120,4.0,14.0,56,0.00,,,0.00,WUHU216DAVISVP2,2013-06-01 16:41:00,
2013-06-01 12:46:00,88.2,71.0,29.89,SE,129,6.0,14.0,57,0.00,,,0.00,WUHU216DAVISVP2,2013-06-01 16:46:00,
2013-06-01 12:51:00,88.2,70.2,29.89,ESE,118,5.0,14.0,55,0.00,,,0.00,WUHU216DAVISVP2,2013-06-01 16:51:00,
2013-06-01 12:56:00,88.0,70.6,29.89,SE,124,6.0,11.0,56,0.00,,,0.00,WUHU216DAVISVP2,2013-06-01 16:56:00,
2013-06-01 13:01:00,87.8,70.4,29.88,SE,125,5.7,11.0,56,0.00,,,0.00,WUHU216DAVISVP2,2013-06-01 17:01:00,
2013-06-01 13:06:00,88.3,70.9,29.88,SE,124,9.0,11.0,56,0.00,,,0.00,WUHU216DAVISVP2,2013-06-01 17:06:00,
2013-06-01 13:11:00,88.5,72.3,29.88,SE,134,9.0,11.0,59,0.00,,,0.00,WUHU216DAVISVP2,2013-06-01 17:11:00,
2013-06-01 13:16:00,89.1,71.4,29.87,East,86,6.0,11.0,56,0.00,,,0.00,WUHU216DAVISVP2,2013-06-01 17:16:00,
2013-06-01 13:21:00,89.3,71.3,29.87,SSE,161,5.2,14.0,55,0.00,,,0.00,WUHU216DAVISVP2,2013-06-01 17:21:00,
2013-06-01 13:26:00,89.6,71.0,29.87,SSE,158,4.4,14.0,54,0.00,,,0.00,WUHU216DAVISVP2,2013-06-01 17:26:00,
2013-06-01 13:31:00,89.6,70.4,29.87,ESE,103,6.0,14.0,53,0.00,,,0.00,WUHU216DAVISVP2,2013-06-01 17:31:00,
2013-06-01 13:36:00,89.4,72.2,29.87,South,170,5.0,14.0,57,0.00,,,0.00,WUHU216DAVISVP2,2013-06-01 17:36:00,
2013-06-01 13:41:00,90.4,72.3,29.87,South,182,4.7,12.0,55,0.00,,,0.00,WUHU216DAVISVP2,2013-06-01 17:41:00,
2013-06-01 13:46:00,90.3,71.1,29.87,SE,138,8.0,16.0,53,0.00,,,0.00,WUHU216DAVISVP2,2013-06-01 17:46:00,
2013-06-01 13:51:00,89.9,71.8,29.86,ESE,115,5.3,16.0,55,0.00,,,0.00,WUHU216DAVISVP2,2013-06-01 17:51:00,
2013-06-01 13:56:00,90.0,71.9,29.86,SE,132,11.0,16.0,55,0.00,,,0.00,WUHU216DAVISVP2,2013-06-01 17:56:00,
2013-06-01 14:01:00,90.6,71.4,29.86,SE,136,5.4,16.0,53,0.00,,,0.00,WUHU216DAVISVP2,2013-06-01 18:01:00,
2013-06-01 14:06:00,91.1,70.5,29.86,SE,146,5.3,15.0,51,0.00,,,0.00,WUHU216DAVISVP2,2013-06-01 18:06:00,
2013-06-01 14:11:00,91.3,71.4,29.86,SSE,167,7.0,15.0,52,0.00,,,0.00,WUHU216DAVISVP2,2013-06-01 18:11:00,
2013-06-01 14:16:00,90.4,70.6,29.86,SSE,168,5.9,13.0,52,0.00,,,0.00,WUHU216DAVISVP2,2013-06-01 18:16:00,
2013-06-01 14:21:00,89.3,70.7,29.85,SSE,163,4.5,12.0,54,0.00,,,0.00,WUHU216DAVISVP2,2013-06-01 18:21:00,
2013-06-01 14:26:00,88.9,71.2,29.86,SSE,153,3.0,12.0,56,0.00,,,0.00,WUHU216DAVISVP2,2013-06-01 18:26:00,
2013-06-01 14:31:00,88.4,70.7,29.85,SE,134,9.0,11.0,56,0.00,,,0.00,WUHU216DAVISVP2,2013-06-01 18:31:00,
2013-06-01 14:36:00,87.9,72.6,29.86,NW,308,4.0,11.0,60,0.00,,,0.00,WUHU216DAVISVP2,2013-06-01 18:36:00,
2013-06-01 14:41:00,84.3,73.7,29.88,NNW,335,5.5,13.0,70,0.04,,,0.04,WUHU216DAVISVP2,2013-06-01 18:41:00,
2013-06-01 14:46:00,78.9,70.5,29.88,NNW,344,5.9,14.0,75,0.10,,,0.10,WUHU216DAVISVP2,2013-06-01 18:46:00,
2013-06-01 14:51:00,76.9,68.9,29.87,North,5,4.1,14.0,76,0.18,,,0.18,WUHU216DAVISVP2,2013-06-01 18:51:00,
2013-06-01 14:56:00,76.8,71.2,29.86,SE,129,2.0,14.0,83,0.18,,,0.18,WUHU216DAVISVP2,2013-06-01 18:56:00,
2013-06-01 15:01:00,77.9,74.7,29.86,SE,124,1.0,14.0,90,0.18,,,0.18,WUHU216DAVISVP2,2013-06-01 19:01:00,
2013-06-01 15:06:00,79.0,74.8,29.86,ESE,120,0.0,10.0,87,0.18,,,0.18,WUHU216DAVISVP2,2013-06-01 19:06:00,
2013-06-01 15:11:00,79.8,75.9,29.87,ENE,61,3.0,4.0,88,0.18,,,0.18,WUHU216DAVISVP2,2013-06-01 19:11:00,
2013-06-01 15:16:00,80.1,75.6,29.86,East,92,2.6,4.0,86,0.18,,,0.18,WUHU216DAVISVP2,2013-06-01 19:16:00,
2013-06-01 15:21:00,80.5,76.3,29.86,WNW,299,2.0,4.0,87,0.18,,,0.18,WUHU216DAVISVP2,2013-06-01 19:21:00,
2013-06-01 15:26:00,81.0,76.1,29.85,NNW,329,1.1,3.0,85,0.18,,,0.18,WUHU216DAVISVP2,2013-06-01 19:26:00,
2013-06-01 15:31:00,81.4,75.8,29.85,East,79,1.0,3.0,83,0.18,,,0.18,WUHU216DAVISVP2,2013-06-01 19:31:00,
2013-06-01 15:36:00,82.1,76.2,29.85,ESE,104,1.0,3.0,82,0.18,,,0.18,WUHU216DAVISVP2,2013-06-01 19:36:00,
2013-06-01 15:41:00,82.1,76.9,29.85,ESE,105,0.0,3.0,84,0.14,,,0.18,WUHU216DAVISVP2,2013-06-01 19:41:00,
2013-06-01 15:46:00,81.4,77.2,29.85,West,269,1.0,2.0,87,0.08,,,0.18,WUHU216DAVISVP2,2013-06-01 19:46:00,
2013-06-01 15:51:00,82.3,76.3,29.85,WNW,301,1.1,2.0,82,0.00,,,0.18,WUHU216DAVISVP2,2013-06-01 19:51:00,
2013-06-01 15:56:00,83.9,76.8,29.85,SSE,154,1.3,3.0,79,0.00,,,0.18,WUHU216DAVISVP2,2013-06-01 19:56:00,
2013-06-01 16:01:00,85.1,77.6,29.84,SE,142,3.0,4.0,78,0.00,,,0.18,WUHU216DAVISVP2,2013-06-01 20:01:00,
2013-06-01 16:06:00,84.4,75.8,29.85,SE,125,2.4,6.0,75,0.00,,,0.18,WUHU216DAVISVP2,2013-06-01 20:06:00,
2013-06-01 16:11:00,84.5,74.7,29.85,East,83,1.5,6.0,72,0.00,,,0.18,WUHU216DAVISVP2,2013-06-01 20:11:00,
2013-06-01 16:16:00,85.0,74.4,29.85,SE,138,1.6,6.0,70,0.00,,,0.18,WUHU216DAVISVP2,2013-06-01 20:16:00,
2013-06-01 16:21:00,86.6,75.5,29.85,SE,146,1.0,5.0,69,0.00,,,0.18,WUHU216DAVISVP2,2013-06-01 20:21:00,
2013-06-01 16:26:00,88.3,78.4,29.84,SW,228,0.0,3.0,72,0.00,,,0.18,WUHU216DAVISVP2,2013-06-01 20:26:00,
2013-06-01 16:31:00,89.6,79.2,29.84,SW,228,0.0,3.0,71,0.00,,,0.18,WUHU216DAVISVP2,2013-06-01 20:31:00,
2013-06-01 16:36:00,91.1,77.5,29.84,ESE,110,1.0,2.0,64,0.00,,,0.18,WUHU216DAVISVP2,2013-06-01 20:36:00,
2013-06-01 16:41:00,91.6,75.5,29.84,East,84,2.0,2.0,59,0.00,,,0.18,WUHU216DAVISVP2,2013-06-01 20:41:00,
2013-06-01 16:46:00,90.4,75.4,29.84,SE,128,1.0,3.0,61,0.00,,,0.18,WUHU216DAVISVP2,2013-06-01 20:46:00,
2013-06-01 16:51:00,89.4,74.5,29.84,East,79,2.0,3.0,61,0.00,,,0.18,WUHU216DAVISVP2,2013-06-01 20:51:00,
2013-06-01 16:56:00,88.5,73.8,29.83,ESE,106,1.5,3.0,62,0.00,,,0.18,WUHU216DAVISVP2,2013-06-01 20:56:00,
2013-06-01 17:01:00,88.4,74.2,29.83,SE,125,3.0,3.0,63,0.00,,,0.18,WUHU216DAVISVP2,2013-06-01 21:01:00,
2013-06-01 17:06:00,88.6,75.2,29.83,ESE,117,1.7,3.0,64,0.00,,,0.18,WUHU216DAVISVP2,2013-06-01 21:06:00,
2013-06-01 17:11:00,88.9,74.2,29.83,SE,132,1.8,4.0,62,0.00,,,0.18,WUHU216DAVISVP2,2013-06-01 21:11:00,
2013-06-01 17:16:00,88.9,75.0,29.83,SW,224,4.0,7.0,63,0.00,,,0.18,WUHU216DAVISVP2,2013-06-01 21:16:00,
2013-06-01 17:21:00,89.8,76.5,29.83,SSW,211,3.0,7.0,65,0.00,,,0.18,WUHU216DAVISVP2,2013-06-01 21:21:00,
2013-06-01 17:26:00,90.0,73.7,29.82,WSW,240,4.0,7.0,59,0.00,,,0.18,WUHU216DAVISVP2,2013-06-01 21:26:00,
2013-06-01 17:31:00,90.4,73.6,29.82,SW,236,2.0,7.0,58,0.00,,,0.18,WUHU216DAVISVP2,2013-06-01 21:31:00,
2013-06-01 17:36:00,90.4,73.6,29.82,SE,137,1.8,9.0,58,0.00,,,0.18,WUHU216DAVISVP2,2013-06-01 21:36:00,
2013-06-01 17:41:00,90.8,74.8,29.82,SSE,161,2.3,9.0,59,0.00,,,0.18,WUHU216DAVISVP2,2013-06-01 21:41:00,
2013-06-01 17:46:00,90.6,73.0,29.82,SSW,204,3.1,9.0,56,0.00,,,0.18,WUHU216DAVISVP2,2013-06-01 21:46:00,
2013-06-01 17:51:00,90.3,73.8,29.82,SSW,208,4.0,9.0,58,0.00,,,0.18,WUHU216DAVISVP2,2013-06-01 21:51:00,
2013-06-01 17:56:00,89.9,72.9,29.82,SSW,192,4.0,12.0,57,0.00,,,0.18,WUHU216DAVISVP2,2013-06-01 21:56:00,
2013-06-01 18:01:00,89.8,73.9,29.82,SSW,199,6.0,12.0,59,0.00,,,0.18,WUHU216DAVISVP2,2013-06-01 22:01:00,
2013-06-01 18:06:00,89.6,72.3,29.82,SSW,200,4.9,12.0,57,0.00,,,0.18,WUHU216DAVISVP2,2013-06-01 22:06:00,
2013-06-01 18:11:00,89.6,72.6,29.82,South,189,4.2,12.0,57,0.00,,,0.18,WUHU216DAVISVP2,2013-06-01 22:11:00,
2013-06-01 18:16:00,89.6,72.6,29.82,South,191,2.8,14.0,57,0.00,,,0.18,WUHU216DAVISVP2,2013-06-01 22:16:00,
2013-06-01 18:21:00,89.3,72.3,29.82,South,180,4.2,14.0,57,0.00,,,0.18,WUHU216DAVISVP2,2013-06-01 22:21:00,
2013-06-01 18:26:00,89.1,72.7,29.81,South,188,5.0,14.0,58,0.00,,,0.18,WUHU216DAVISVP2,2013-06-01 22:26:00,
2013-06-01 18:31:00,88.7,72.3,29.81,SSW,210,3.4,12.0,58,0.00,,,0.18,WUHU216DAVISVP2,2013-06-01 22:31:00,
2013-06-01 18:36:00,88.3,71.9,29.81,SSW,195,3.5,12.0,58,0.00,,,0.18,WUHU216DAVISVP2,2013-06-01 22:36:00,
2013-06-01 18:41:00,88.1,72.2,29.82,SW,218,2.0,10.0,59,0.00,,,0.18,WUHU216DAVISVP2,2013-06-01 22:41:00,
2013-06-01 18:46:00,88.0,70.6,29.81,South,183,4.0,11.0,56,0.00,,,0.18,WUHU216DAVISVP2,2013-06-01 22:46:00,
2013-06-01 18:51:00,87.8,70.1,29.81,South,181,3.1,11.0,56,0.00,,,0.18,WUHU216DAVISVP2,2013-06-01 22:51:00,
2013-06-01 18:56:00,87.6,70.2,29.81,South,169,2.2,11.0,56,0.00,,,0.18,WUHU216DAVISVP2,2013-06-01 22:56:00,
2013-06-01 19:01:00,87.5,70.7,29.81,SW,217,1.5,11.0,57,0.00,,,0.18,WUHU216DAVISVP2,2013-06-01 23:01:00,
2013-06-01 19:06:00,87.4,69.8,29.81,SSE,149,5.0,11.0,56,0.00,,,0.18,WUHU216DAVISVP2,2013-06-01 23:06:00,
2013-06-01 19:11:00,87.2,69.6,29.81,SSW,195,1.6,11.0,56,0.00,,,0.18,WUHU216DAVISVP2,2013-06-01 23:11:00,
2013-06-01 19:16:00,86.9,70.1,29.81,South,177,3.0,8.0,57,0.00,,,0.18,WUHU216DAVISVP2,2013-06-01 23:16:00,
2013-06-01 19:21:00,86.3,69.5,29.82,SSE,156,2.1,8.0,57,0.00,,,0.18,WUHU216DAVISVP2,2013-06-01 23:21:00,
2013-06-01 19:26:00,86.0,69.8,29.82,SE,140,3.0,8.0,58,0.00,,,0.18,WUHU216DAVISVP2,2013-06-01 23:26:00,
2013-06-01 19:31:00,85.5,69.8,29.82,SSE,160,1.8,7.0,59,0.00,,,0.18,WUHU216DAVISVP2,2013-06-01 23:31:00,
2013-06-01 19:36:00,85.0,69.8,29.82,SSE,150,1.0,7.0,60,0.00,,,0.18,WUHU216DAVISVP2,2013-06-01 23:36:00,
2013-06-01 19:41:00,84.4,69.7,29.82,South,178,2.2,8.0,61,0.00,,,0.18,WUHU216DAVISVP2,2013-06-01 23:41:00,
2013-06-01 19:46:00,83.7,69.6,29.82,South,180,2.0,8.0,62,0.00,,,0.18,WUHU216DAVISVP2,2013-06-01 23:46:00,
2013-06-01 19:51:00,83.2,69.6,29.82,SSE,161,2.9,8.0,63,0.00,,,0.18,WUHU216DAVISVP2,2013-06-01 23:51:00,
2013-06-01 19:56:00,82.8,69.6,29.82,SSE,151,2.7,8.0,64,0.00,,,0.18,WUHU216DAVISVP2,2013-06-01 23:56:00,
2013-06-01 20:01:00,82.4,69.7,29.83,SSW,204,4.0,8.0,65,0.00,,,0.18,WUHU216DAVISVP2,2013-06-02 00:01:00,
2013-06-01 20:06:00,81.9,69.7,29.83,South,178,2.0,8.0,66,0.00,,,0.18,WUHU216DAVISVP2,2013-06-02 00:06:00,
2013-06-01 20:11:00,81.5,69.5,29.83,South,171,1.5,8.0,67,0.00,,,0.18,WUHU216DAVISVP2,2013-06-02 00:11:00,
2013-06-01 20:16:00,81.1,69.8,29.83,South,169,2.0,6.0,68,0.00,,,0.18,WUHU216DAVISVP2,2013-06-02 00:16:00,
2013-06-01 20:21:00,80.8,69.9,29.83,SSW,196,2.0,6.0,69,0.00,,,0.18,WUHU216DAVISVP2,2013-06-02 00:21:00,
2013-06-01 20:26:00,80.5,70.0,29.83,South,175,2.0,5.0,70,0.00,,,0.18,WUHU216DAVISVP2,2013-06-02 00:26:00,
2013-06-01 20:31:00,80.1,69.7,29.83,SE,146,2.0,5.0,70,0.00,,,0.18,WUHU216DAVISVP2,2013-06-02 00:31:00,
2013-06-01 20:36:00,79.8,69.6,29.83,SSE,164,1.5,5.0,71,0.00,,,0.18,WUHU216DAVISVP2,2013-06-02 00:36:00,
2013-06-01 20:41:00,79.5,69.5,29.82,South,172,1.5,5.0,71,0.00,,,0.18,WUHU216DAVISVP2,2013-06-02 00:41:00,
2013-06-01 20:46:00,79.4,69.8,29.82,South,181,3.0,5.0,72,0.00,,,0.18,WUHU216DAVISVP2,2013-06-02 00:46:00,
2013-06-01 20:51:00,79.2,69.6,29.83,South,176,3.0,5.0,72,0.00,,,0.18,WUHU216DAVISVP2,2013-06-02 00:51:00,
2013-06-01 20:56:00,78.9,69.7,29.83,SSW,199,1.5,5.0,73,0.00,,,0.18,WUHU216DAVISVP2,2013-06-02 00:56:00,
2013-06-01 21:01:00,78.6,69.4,29.83,SSW,194,1.2,5.0,73,0.00,,,0.18,WUHU216DAVISVP2,2013-06-02 01:01:00,
2013-06-01 21:06:00,78.4,69.4,29.83,SSW,198,1.4,4.0,74,0.00,,,0.18,WUHU216DAVISVP2,2013-06-02 01:06:00,
2013-06-01 21:11:00,78.3,69.5,29.83,South,188,2.0,4.0,74,0.00,,,0.18,WUHU216DAVISVP2,2013-06-02 01:11:00,
2013-06-01 21:16:00,78.1,69.3,29.83,South,177,1.3,4.0,74,0.00,,,0.18,WUHU216DAVISVP2,2013-06-02 01:16:00,
2013-06-01 21:21:00,78.0,69.4,29.83,South,184,3.0,4.0,75,0.00,,,0.18,WUHU216DAVISVP2,2013-06-02 01:21:00,
2013-06-01 21:26:00,78.0,69.6,29.83,SSW,205,5.0,7.0,75,0.00,,,0.18,WUHU216DAVISVP2,2013-06-02 01:26:00,
2013-06-01 21:31:00,78.1,69.7,29.83,South,174,3.0,7.0,75,0.00,,,0.18,WUHU216DAVISVP2,2013-06-02 01:31:00,
2013-06-01 21:36:00,78.2,69.8,29.83,WSW,240,4.0,7.0,75,0.00,,,0.18,WUHU216DAVISVP2,2013-06-02 01:36:00,
2013-06-01 21:41:00,78.3,69.9,29.83,SSE,163,2.0,7.0,75,0.00,,,0.18,WUHU216DAVISVP2,2013-06-02 01:41:00,
2013-06-01 21:46:00,78.3,69.9,29.83,SSE,150,3.0,7.0,75,0.00,,,0.18,WUHU216DAVISVP2,2013-06-02 01:46:00,
2013-06-01 21:51:00,78.4,70.0,29.83,SSE,165,4.0,8.0,75,0.00,,,0.18,WUHU216DAVISVP2,2013-06-02 01:51:00,
2013-06-01 21:56:00,78.3,69.9,29.83,SSE,165,2.4,8.0,75,0.00,,,0.18,WUHU216DAVISVP2,2013-06-02 01:56:00,
2013-06-01 22:01:00,78.1,69.7,29.83,South,183,3.1,9.0,75,0.00,,,0.18,WUHU216DAVISVP2,2013-06-02 02:01:00,
2013-06-01 22:06:00,78.0,69.6,29.84,South,179,2.8,9.0,75,0.00,,,0.18,WUHU216DAVISVP2,2013-06-02 02:06:00,
2013-06-01 22:11:00,77.9,69.9,29.84,SSE,155,2.1,9.0,76,0.00,,,0.18,WUHU216DAVISVP2,2013-06-02 02:11:00,
2013-06-01 22:16:00,77.7,69.7,29.84,SSE,158,2.7,9.0,76,0.00,,,0.18,WUHU216DAVISVP2,2013-06-02 02:16:00,
2013-06-01 22:21:00,77.5,69.5,29.84,South,184,2.0,7.0,76,0.00,,,0.18,WUHU216DAVISVP2,2013-06-02 02:21:00,
2013-06-01 22:26:00,77.4,69.8,29.84,SSW,196,2.2,7.0,77,0.00,,,0.18,WUHU216DAVISVP2,2013-06-02 02:26:00,
2013-06-01 22:31:00,77.3,69.7,29.84,South,179,1.6,7.0,77,0.00,,,0.18,WUHU216DAVISVP2,2013-06-02 02:31:00,
2013-06-01 22:36:00,77.1,69.5,29.84,South,189,2.4,6.0,77,0.00,,,0.18,WUHU216DAVISVP2,2013-06-02 02:36:00,
2013-06-01 22:41:00,77.1,69.8,29.84,SSE,155,3.0,5.0,78,0.00,,,0.18,WUHU216DAVISVP2,2013-06-02 02:41:00,
2013-06-01 22:46:00,77.1,69.7,29.84,South,174,4.0,6.0,78,0.00,,,0.18,WUHU216DAVISVP2,2013-06-02 02:46:00,
2013-06-01 22:51:00,77.0,69.6,29.84,WSW,246,3.0,7.0,78,0.00,,,0.18,WUHU216DAVISVP2,2013-06-02 02:51:00,
2013-06-01 22:56:00,76.8,69.4,29.83,South,177,2.0,7.0,78,0.00,,,0.18,WUHU216DAVISVP2,2013-06-02 02:56:00,
2013-06-01 23:01:00,76.7,69.7,29.84,South,171,2.4,7.0,79,0.00,,,0.18,WUHU216DAVISVP2,2013-06-02 03:01:00,
2013-06-01 23:06:00,76.7,69.7,29.84,SSE,155,3.0,7.0,79,0.00,,,0.18,WUHU216DAVISVP2,2013-06-02 03:06:00,
2013-06-01 23:11:00,76.7,69.7,29.84,South,176,2.0,6.0,79,0.00,,,0.18,WUHU216DAVISVP2,2013-06-02 03:11:00,
2013-06-01 23:16:00,76.6,69.6,29.83,ESE,108,3.0,6.0,79,0.00,,,0.18,WUHU216DAVISVP2,2013-06-02 03:16:00,
2013-06-01 23:21:00,76.4,69.8,29.83,South,169,2.0,5.0,80,0.00,,,0.18,WUHU216DAVISVP2,2013-06-02 03:21:00,
2013-06-01 23:26:00,76.2,69.7,29.84,ESE,117,2.0,5.0,80,0.00,,,0.18,WUHU216DAVISVP2,2013-06-02 03:26:00,
2013-06-01 23:31:00,76.1,69.6,29.84,SSE,161,1.3,4.0,80,0.00,,,0.18,WUHU216DAVISVP2,2013-06-02 03:31:00,
2013-06-01 23:36:00,76.0,69.7,29.84,East,98,2.0,5.0,81,0.00,,,0.18,WUHU216DAVISVP2,2013-06-02 03:36:00,
2013-06-01 23:41:00,75.8,69.6,29.84,South,174,1.1,5.0,81,0.00,,,0.18,WUHU216DAVISVP2,2013-06-02 03:41:00,
2013-06-01 23:46:00,75.8,69.6,29.83,WSW,243,3.0,5.0,81,0.00,,,0.18,WUHU216DAVISVP2,2013-06-02 03:46:00,
2013-06-01 23:51:00,75.7,69.8,29.83,SE,125,2.6,5.0,82,0.00,,,0.18,WUHU216DAVISVP2,2013-06-02 03:51:00,
2013-06-01 23:56:00,75.7,69.8,29.83,ESE,113,2.0,4.0,82,0.00,,,0.18,WUHU216DAVISVP2,2013-06-02 03:56:00,